INTELSAT 901 (IS-901) (26824 NORAD) Tracking and Keplerian Element Data

This shows tracking and keplerian element data for the satellite.

Feedback or suggestion? Click here.




ElementValue
Catalog26824
NameINTELSAT 901 (IS-901)
Epoch Orbit6411
Epoch Day349.45175531
Epoch Year2018
RAAN94.1648
Inclination0.6419
Eccentricity0.0002825
Argument of Perigee175.819
Mean Anonmoly307.2076
Mean Motion1.00270842
Decay Rate-2.01E-06
L11 26824U 01024A 18349.45175531 -.00000201 00000-0 00000+0 0 9998
L22 26824 0.6419 94.1648 0002825 175.8190 307.2076 1.00270842 64115

Live tracking and technical data element details for INTELSAT 901 (IS-901) (NORAD 26824). INTELSAT 901 (IS-901) can be tracked NOW for your location showing map with azimuth and elevation plus other details from your city location.

Track the satellite on the map from your city or location and see movement details for azimuth, elevation, latitude, longitude, range, height, and movement on the map or in text.







IsCatalogInMostPopularTable: catalog: 26824, numindb: 83
Update: records affected: 1



GetName: 26824 INTELSAT 901 (IS-901)

Hit Count: updated at: Sun, 16 Dec 2018 09:56:18 GMT